[[{"header":{"parameterUnit":"m.s-1","parameterCategory":2,"la1":30.2991,"la2":30.254,"lo1":-89.0895,"lo2":-89.0444,"dy":0.0017,"dx":0.0017,"nx":28,"ny":28,"refTime":"2024-05-10T09:00:00:Z","depth":"0","parameterNumber":2,"parameterNumberName":"U-component_of_CURRENTS"},"data":[0,0,0,0,0,0,0,0,0,0,0,0,0,0,0,0,0,0,0,0,0,0,0,0,0,0,0,0,0,0,0,0,0,0,0,0,0,0,0,0,0,0,0,0,0,0,0,0,0,0,0,0,0,0,0,0,0,0,0.257,0.2571,0,0.2606,0.2607,0.2607,0.2605,0.2605,0.2604,0.2604,0.2646,0.2648,0.2649,0,0,0,0,0,0,0,0,0,0,0,0,0,0.2552,0.2552,0.257,0.2571,0.2572,0.2606,0.2607,0.2607,0.2605,0.2605,0.2604,0.2604,0.2646,0.2647,0.2649,0,0,0,0,0,0,0,0,0,0,0,0,0,0.257,0.2552,0.257,0.2576,0.2577,0.2606,0.2607,0.2607,0.2605,0.2605,0.2604,0.2604,0.2645,0.2647,0.265,0.2676,0,0,0.2656,0.2657,0,0,0,0,0,0,0,0,0.2569,0.2571,0.2574,0.2575,0.2576,0.2602,0.2616,0.2631,0.2606,0.2593,0.2604,0.2603,0.2633,0.2636,0.2643,0.2678,0.268,0.2657,0.2658,0.2659,0.266,0,0,0,0,0,0,0,0.2568,0.2569,0.2583,0.2575,0.2576,0.2594,0.2596,0.2619,0.2615,0.2594,0.2594,0.2601,0.2634,0.264,0.2644,0.268,0.2657,0.2659,0.266,0.2661,0.2791,0.2793,0,0,0,0,0,0,0.2564,0.2568,0.2582,0.2585,0.2573,0.2595,0.2596,0.2593,0.2615,0.2618,0.2601,0.26,0.2637,0.2641,0.2645,0.2718,0.2659,0.2661,0.2662,0.2789,0.2791,0.2794,0,0,0,0,0,0,0.2563,0.2564,0.2581,0.2579,0.2582,0.2596,0.2592,0.2594,0.2604,0.262,0.2623,0.261,0.2637,0.2642,0.2681,0.2718,0.2662,0.2664,0.2786,0.279,0.2793,0.2838,0,0,0,0,0,0,0.2562,0.2563,0.2564,0.2578,0.2582,0.2607,0.2593,0.2596,0.261,0.2609,0.2629,0.2632,0.2637,0.2677,0.2683,0.272,0.2666,0.2784,0.2788,0.2792,0.2834,0.2842,0.2849,0,0,0,0,0,0.2561,0.2565,0.2563,0.2566,0.258,0.2608,0.2612,0.2619,0.2611,0.2624,0.264,0.2631,0.2706,0.2681,0.2687,0.2725,0.2782,0.2787,0.2791,0.283,0.284,0.2849,0,0,0,0,0,0,0.256,0.2566,0.2564,0.257,0.2591,0.2608,0.2621,0.2624,0.2646,0.2646,0.2653,0.2659,0.2711,0.2713,0.2685,0.2777,0.2745,0.2751,0.2773,0.2783,0.279,0.2767,0.2668,0,0,0,0,0,0.256,0.2561,0.2577,0.2583,0.2594,0.2608,0.262,0.2626,0.2646,0.2654,0.2668,0.2695,0.2737,0.2753,0.2784,0.2827,0.2821,0.286,0.2868,0.2874,0.2862,0.2903,0.2913,0.2809,0.2809,0.2809,0,0,0.2559,0.2565,0.2565,0.2584,0.2598,0.2621,0.2613,0.2637,0.2659,0.2658,0.2693,0.2723,0.2756,0.2811,0.2835,0.2815,0.2901,0.288,0.2885,0.2869,0.2909,0.2919,0.2927,0.2813,0.2812,0.2811,0,0,0.2564,0.2568,0.2572,0.2593,0.2619,0.2635,0.2642,0.2666,0.268,0.272,0.2736,0.2782,0.2829,0.2865,0.289,0.2959,0.2944,0.2979,0.2995,0.3036,0.3044,0.3051,0.305,0.3056,0.2978,0.2979,0.2979,0,0.2565,0.2569,0.2581,0.26,0.2621,0.2641,0.2663,0.2688,0.2721,0.2747,0.2736,0.2831,0.2855,0.2935,0.2959,0.2976,0.298,0.2954,0.3044,0.3051,0.3057,0.3054,0.3061,0.2981,0.2981,0.2981,0.298,0,0.2574,0.2584,0.2595,0.262,0.2649,0.2674,0.2711,0.2743,0.2762,0.2788,0.2862,0.2897,0.2952,0.298,0.2987,0.3061,0.3043,0.3051,0.3013,0.307,0.3064,0.307,0.2985,0.2984,0.2983,0.2983,0,0,0.2555,0.259,0.2595,0.2606,0.2662,0.2681,0.274,0.2796,0.2829,0.2873,0.2922,0.2999,0.3015,0.3043,0.3071,0.3099,0.3148,0.309,0.3091,0.3074,0.321,0.314,0.3139,0.3175,0.3177,0.3178,0.3184,0,0.2558,0.2582,0.261,0.2645,0.2662,0.2714,0.2764,0.2822,0.287,0.2924,0.2981,0.3035,0.3043,0.3069,0.3109,0.3146,0.3167,0.3143,0.3168,0.3168,0.3088,0.3145,0.2999,0.2987,0.319,0.319,0.3191,0,0.2553,0.2572,0.2599,0.2648,0.2662,0.2693,0.2776,0.2825,0.2922,0.2961,0.3033,0.3068,0.3139,0.3123,0.3202,0.3188,0.3197,0.3208,0.321,0.3127,0.3109,0.2966,0.299,0.2932,0.32,0.3199,0.3199,0,0.2517,0.2561,0.2578,0.2597,0.2662,0.2693,0.274,0.2836,0.2888,0.2982,0.3026,0.311,0.3157,0.3193,0.3231,0.3219,0.3295,0.3285,0.3223,0.3217,0.3085,0.3065,0.304,0.3323,0.3323,0.3323,0.3323,0,0.2503,0.2514,0.2557,0.2566,0.26,0.2662,0.272,0.2785,0.2885,0.2952,0.3036,0.3096,0.3178,0.3237,0.3247,0.3258,0.3317,0.3223,0.3222,0.3096,0.3078,0.3015,0.2996,0.3323,0.3323,0.3323,0.3323,0,0.2455,0.2485,0.2501,0.2558,0.2579,0.2604,0.2701,0.2745,0.2848,0.2939,0.2968,0.3102,0.3169,0.323,0.3293,0.3276,0.3184,0.3273,0.3098,0.3076,0.2926,0.2915,0.2724,0.2657,0.3181,0.3179,0.3178,0,0.243,0.2432,0.2477,0.2489,0.2513,0.2564,0.2605,0.2714,0.2773,0.2936,0.2974,0.3078,0.3138,0.3206,0.3192,0.3185,0.3121,0.3038,0.2984,0.2895,0.2884,0.275,0.27,0.2825,0.2821,0.2817,0.2815,0,0.2384,0.2398,0.2411,0.2435,0.2464,0.2503,0.2572,0.2609,0.2747,0.2815,0.2915,0.297,0.3057,0.3003,0.3015,0.299,0.2869,0.2966,0.2933,0.2645,0.2438,0.2381,0.2827,0.2785,0.2788,0.279,0.2791,0.2793,0.2346,0.234,0.2357,0.2366,0.2397,0.2419,0.2419,0.2498,0.2556,0.2634,0.2775,0.2801,0.2841,0.2828,0.2794,0.2649,0.2652,0.2548,0.2553,0.2434,0.2324,0.2683,0.2611,0.2613,0.2615,0.2616,0.2617,0,0.2285,0.2281,0.229,0.2288,0.2275,0.2328,0.2372,0.2353,0.2358,0.2465,0.2521,0.2534,0.2469,0.248,0.2379,0.2268,0.2149,0.2202,0.2001,0.1988,0.2362,0.2306,0.2092,0.2092,0.2092,0.2092,0.2092,0.2092,0.2257,0.2226,0.2216,0.2157,0.2155,0.2109,0.2104,0.209,0.2132,0.2121,0.2125,0.219,0.2259,0.2183,0.2047,0.1993,0.186,0.1708,0.177,0.2073,0.2106,0.2138,0.2082,0.1825,0.1824,0.1274,0.127,0.1267]},{"header":{"parameterUnit":"m.s-1","parameterCategory":2,"la1":30.2991,"la2":30.254,"lo1":-89.0895,"lo2":-89.0444,"dy":0.0017,"dx":0.0017,"nx":28,"ny":28,"refTime":"2024-05-10T09:00:00:Z","depth":"0","parameterNumber":3,"parameterNumberName":"V-component_of_CURRENTS"},"data":[0,0,0,0,0,0,0,0,0,0,0,0,0,0,0,0,0,0,0,0,0,0,0,0,0,0,0,0,0,0,0,0,0,0,0,0,0,0,0,0,0,0,0,0,0,0,0,0,0,0,0,0,0,0,0,0,0,0,0.0342,0.0342,0,0.0327,0.0327,0.0327,0.031,0.031,0.031,0.0309,0.0276,0.0275,0.0274,0,0,0,0,0,0,0,0,0,0,0,0,0,0.0326,0.0326,0.0342,0.0342,0.0342,0.0327,0.0327,0.0327,0.031,0.031,0.031,0.0309,0.0276,0.0275,0.0274,0,0,0,0,0,0,0,0,0,0,0,0,0,0.0324,0.0327,0.0342,0.0332,0.0331,0.0327,0.0327,0.0327,0.031,0.031,0.031,0.0309,0.0276,0.0275,0.0274,0.0273,0,0,0.0271,0.027,0,0,0,0,0,0,0,0,0.0324,0.0324,0.0334,0.0333,0.0332,0.0321,0.0309,0.0308,0.031,0.0317,0.0309,0.0309,0.029,0.0287,0.0285,0.0271,0.027,0.0271,0.027,0.0269,0.0269,0,0,0,0,0,0,0,0.0324,0.0325,0.0335,0.0334,0.0332,0.0318,0.0318,0.0308,0.0304,0.0317,0.0316,0.0315,0.0289,0.0286,0.0284,0.0269,0.0271,0.027,0.0269,0.0268,0.0257,0.0258,0,0,0,0,0,0,0.0329,0.0325,0.0336,0.0335,0.0328,0.0319,0.0318,0.0324,0.0305,0.0302,0.0315,0.0314,0.0288,0.0285,0.0282,0.03,0.0269,0.0268,0.0268,0.0257,0.0257,0.0258,0,0,0,0,0,0,0.0329,0.0331,0.0337,0.033,0.033,0.032,0.0326,0.0324,0.0323,0.0304,0.0301,0.0317,0.0287,0.0284,0.0282,0.0298,0.0268,0.0267,0.0257,0.0257,0.0258,0.0322,0,0,0,0,0,0,0.0329,0.0331,0.0336,0.033,0.033,0.0342,0.0326,0.0324,0.0323,0.0322,0.0304,0.03,0.0287,0.0284,0.0281,0.0296,0.0266,0.0256,0.0257,0.0257,0.032,0.0325,0.0329,0,0,0,0,0,0.0328,0.0341,0.0337,0.0338,0.0339,0.0342,0.0341,0.0332,0.0323,0.0328,0.0318,0.0301,0.0286,0.0284,0.028,0.0295,0.0256,0.0257,0.0257,0.0317,0.0324,0.0329,0,0,0,0,0,0,0.0336,0.034,0.0336,0.0348,0.0348,0.034,0.0344,0.0336,0.0331,0.033,0.0309,0.0305,0.0309,0.029,0.0288,0.0291,0.0267,0.0267,0.0314,0.0319,0.0324,0.0343,0.0265,0,0,0,0,0,0.0341,0.0352,0.035,0.036,0.0362,0.0353,0.0353,0.0348,0.0342,0.034,0.0328,0.0315,0.0309,0.0306,0.0295,0.0299,0.0281,0.0304,0.0309,0.0313,0.0325,0.0312,0.0318,0.026,0.026,0.026,0,0,0.0346,0.035,0.0355,0.0362,0.0361,0.0375,0.0352,0.0358,0.0372,0.0337,0.0351,0.0332,0.0313,0.032,0.0319,0.0307,0.0317,0.0314,0.0318,0.0328,0.0314,0.0319,0.0324,0.0261,0.0261,0.0261,0,0,0.0367,0.0367,0.0386,0.039,0.0394,0.0391,0.0395,0.0392,0.0393,0.0401,0.038,0.0373,0.0362,0.0355,0.0349,0.0373,0.0343,0.0365,0.0408,0.0396,0.0401,0.0405,0.0383,0.0385,0.0368,0.0368,0.0368,0,0.0372,0.0399,0.039,0.041,0.0422,0.0403,0.0428,0.0427,0.0423,0.0435,0.0414,0.0406,0.0382,0.0399,0.0404,0.0387,0.0371,0.039,0.0404,0.0407,0.041,0.0387,0.0388,0.0371,0.0371,0.0371,0.037,0,0.0411,0.0431,0.0443,0.0466,0.0474,0.0492,0.0492,0.0503,0.0497,0.0497,0.0509,0.0477,0.0473,0.0461,0.0439,0.0454,0.0432,0.0412,0.0393,0.042,0.0393,0.0393,0.0376,0.0375,0.0374,0.0373,0,0,0.0429,0.0465,0.0469,0.0496,0.0508,0.0523,0.0549,0.0575,0.0606,0.0586,0.0619,0.0592,0.0569,0.056,0.0527,0.0514,0.0511,0.0477,0.0474,0.0463,0.048,0.0467,0.0466,0.0496,0.0496,0.0497,0.045,0,0.0465,0.0519,0.0524,0.0577,0.0608,0.0607,0.064,0.0657,0.0663,0.0688,0.0656,0.0663,0.0608,0.0604,0.0584,0.0535,0.0515,0.0525,0.0448,0.0446,0.0438,0.0467,0.051,0.0473,0.045,0.045,0.045,0,0.0506,0.054,0.0597,0.0653,0.0667,0.0692,0.0748,0.0776,0.0799,0.0804,0.0799,0.0764,0.0742,0.0686,0.0618,0.0628,0.0561,0.0515,0.0511,0.0481,0.0435,0.0441,0.0473,0.0411,0.0449,0.0449,0.0449,0,0.0537,0.0594,0.0645,0.0662,0.0716,0.0746,0.0777,0.0813,0.0859,0.0872,0.0899,0.0855,0.0845,0.0759,0.065,0.0635,0.0574,0.0537,0.0462,0.0459,0.0472,0.047,0.0444,0.0489,0.0489,0.0489,0.0489,0,0.0579,0.0622,0.0666,0.0696,0.0772,0.079,0.0872,0.0897,0.0945,0.1018,0.0958,0.0993,0.0864,0.0807,0.0689,0.0583,0.0598,0.0481,0.0455,0.0494,0.0494,0.042,0.0382,0.0487,0.0488,0.0488,0.0489,0,0.0607,0.0633,0.07,0.0762,0.079,0.0844,0.0937,0.0999,0.1033,0.1121,0.1126,0.1102,0.1034,0.0895,0.0762,0.0649,0.0507,0.0486,0.0535,0.0516,0.0385,0.0349,0.0314,0.0291,0.0401,0.04,0.04,0,0.0626,0.0662,0.0746,0.0794,0.0825,0.0908,0.0977,0.1038,0.1111,0.1199,0.1248,0.1206,0.1204,0.1001,0.0796,0.0597,0.0514,0.0485,0.0461,0.0397,0.0338,0.033,0.0313,0.0496,0.0496,0.0497,0.0497,0,0.0662,0.0688,0.0743,0.0842,0.0917,0.1017,0.1116,0.1191,0.1282,0.1363,0.1453,0.1455,0.1281,0.1117,0.0837,0.0686,0.0476,0.0485,0.0415,0.0416,0.041,0.037,0.0493,0.05,0.05,0.0499,0.0499,0.0499,0.0686,0.073,0.0802,0.0899,0.099,0.1116,0.1211,0.1328,0.1466,0.1606,0.1602,0.165,0.1412,0.1051,0.0833,0.05,0.0502,0.0407,0.0369,0.0365,0.0355,0.0481,0.0458,0.0458,0.0458,0.0457,0.0457,0,0.0716,0.0772,0.0858,0.0976,0.1079,0.1128,0.13,0.1409,0.1583,0.1714,0.1799,0.1747,0.1449,0.1114,0.0678,0.0444,0.0363,0.0315,0.0321,0.0305,0.0417,0.0433,0.041,0.041,0.041,0.041,0.041,0.041,0.0735,0.0813,0.0859,0.1025,0.1115,0.1269,0.1374,0.1545,0.1681,0.187,0.1942,0.1971,0.1755,0.0975,0.0492,0.0367,0.024,0.0207,0.0127,0.0204,0.0211,0.0216,0.0223,0.0156,0.0156,0.0068,0.0067,0.0066]}],[{"header":{"parameterUnit":"m.s-1","parameterCategory":2,"la1":30.2991,"la2":30.254,"lo1":-89.0895,"lo2":-89.0444,"dy":0.0017,"dx":0.0017,"nx":28,"ny":28,"refTime":"2024-05-10T09:00:00:Z","depth":"2","parameterNumber":2,"parameterNumberName":"U-component_of_CURRENTS"},"data":[0,0,0,0,0,0,0,0,0,0,0,0,0,0,0,0,0,0,0,0,0,0,0,0,0,0,0,0,0,0,0,0,0,0,0,0,0,0,0,0,0,0,0,0,0,0,0,0,0,0,0,0,0,0,0,0,0,0,0.2291,0.2292,0,0.2299,0.2299,0.2299,0.2293,0.2293,0.2293,0.2293,0.2314,0.2315,0.2315,0,0,0,0,0,0,0,0,0,0,0,0,0,0.2296,0.2295,0.2291,0.2292,0.2292,0.2299,0.2299,0.2299,0.2293,0.2293,0.2293,0.2293,0.2314,0.2315,0.2315,0,0,0,0,0,0,0,0,0,0,0,0,0,0.2296,0.2295,0.2291,0.2291,0.2291,0.2299,0.2299,0.2299,0.2293,0.2293,0.2293,0.2293,0.2314,0.2315,0.2316,0.2325,0,0,0.2319,0.2319,0,0,0,0,0,0,0,0,0.2296,0.2295,0.2291,0.2291,0.2291,0.2296,0.2308,0.2309,0.2293,0.2291,0.2293,0.2292,0.2311,0.2312,0.2311,0.2326,0.2327,0.2319,0.2319,0.232,0.232,0,0,0,0,0,0,0,0.2296,0.2295,0.2293,0.2291,0.2291,0.2299,0.2298,0.2308,0.23,0.2291,0.2291,0.2294,0.2311,0.231,0.2312,0.2327,0.2319,0.232,0.232,0.2321,0.2412,0.2414,0,0,0,0,0,0,0.2297,0.2295,0.2292,0.2293,0.2295,0.2299,0.2298,0.2293,0.23,0.2301,0.2294,0.2294,0.2308,0.231,0.2312,0.2374,0.232,0.2321,0.2321,0.241,0.2412,0.2414,0,0,0,0,0,0,0.2297,0.2296,0.2292,0.2296,0.2296,0.2299,0.2294,0.2294,0.2303,0.2303,0.2304,0.2305,0.2308,0.2311,0.2338,0.2373,0.2321,0.2322,0.2408,0.2411,0.2413,0.2466,0,0,0,0,0,0,0.2297,0.2296,0.2298,0.2296,0.2296,0.2308,0.2294,0.2294,0.2306,0.2306,0.2313,0.2314,0.2308,0.2337,0.2339,0.2374,0.2323,0.2406,0.2409,0.2413,0.2462,0.247,0.2477,0,0,0,0,0,0.2297,0.23,0.2298,0.2298,0.2297,0.2309,0.231,0.231,0.2307,0.2317,0.2325,0.2314,0.236,0.2339,0.2341,0.2377,0.2404,0.2408,0.2412,0.2459,0.2469,0.2477,0,0,0,0,0,0,0.2303,0.2299,0.2297,0.2299,0.2309,0.2309,0.2319,0.2319,0.2332,0.2334,0.233,0.2333,0.2374,0.2369,0.2345,0.2416,0.2384,0.2388,0.2418,0.2428,0.2435,0.2421,0.2324,0,0,0,0,0,0.2306,0.2306,0.2309,0.2312,0.2319,0.2321,0.2328,0.233,0.2339,0.2344,0.2349,0.2364,0.2392,0.2403,0.242,0.2452,0.2446,0.248,0.2488,0.2494,0.2487,0.2524,0.2534,0.2428,0.2428,0.2428,0,0,0.2308,0.2308,0.2307,0.2314,0.232,0.2333,0.2325,0.2341,0.2355,0.2345,0.2371,0.2391,0.2408,0.2448,0.2466,0.2448,0.2522,0.2499,0.2505,0.2493,0.253,0.254,0.2549,0.2431,0.243,0.243,0,0,0.2312,0.2316,0.2317,0.233,0.2345,0.235,0.2359,0.2369,0.238,0.2408,0.2415,0.2452,0.2479,0.2502,0.2517,0.2577,0.2564,0.2593,0.2617,0.2654,0.2663,0.267,0.2672,0.2679,0.2594,0.2594,0.2594,0,0.2317,0.2316,0.2323,0.2334,0.2348,0.236,0.2374,0.239,0.2409,0.243,0.2424,0.2492,0.2505,0.2564,0.2586,0.2594,0.26,0.2579,0.2663,0.267,0.2677,0.2677,0.2684,0.2597,0.2597,0.2596,0.2596,0,0.2321,0.2328,0.2335,0.235,0.237,0.2386,0.241,0.2436,0.2454,0.2472,0.2534,0.2555,0.2596,0.2617,0.2617,0.2684,0.2668,0.267,0.2635,0.2691,0.2687,0.2694,0.2601,0.26,0.2599,0.2599,0,0,0.2308,0.233,0.2334,0.2341,0.238,0.239,0.2437,0.2478,0.2507,0.2543,0.2586,0.2644,0.2662,0.268,0.2699,0.2726,0.278,0.2719,0.2719,0.2711,0.2843,0.2771,0.2771,0.2803,0.2805,0.2806,0.2819,0,0.2308,0.2321,0.2342,0.2364,0.2373,0.2414,0.2452,0.2498,0.2539,0.2586,0.2634,0.268,0.2687,0.2712,0.2749,0.2778,0.2801,0.2774,0.2798,0.2797,0.272,0.2778,0.2549,0.2537,0.2826,0.2827,0.2827,0,0.23,0.2311,0.2328,0.2363,0.2373,0.2396,0.2463,0.2501,0.2583,0.2619,0.2686,0.2717,0.2783,0.2769,0.2844,0.283,0.2839,0.2847,0.2849,0.2763,0.2738,0.2531,0.2538,0.2838,0.2837,0.2836,0.2835,0,0.227,0.23,0.231,0.2323,0.237,0.2397,0.2434,0.2514,0.2559,0.2645,0.2688,0.2763,0.2811,0.2844,0.2881,0.2867,0.2942,0.2926,0.2862,0.2856,0.2654,0.2627,0.2964,0.2964,0.2964,0.2964,0.2964,0,0.2254,0.226,0.2294,0.2298,0.2325,0.2374,0.2425,0.2478,0.2566,0.2623,0.2703,0.2755,0.2836,0.2891,0.2899,0.2907,0.2965,0.2868,0.2863,0.2665,0.2641,0.2894,0.2886,0.2965,0.2965,0.2964,0.2964,0,0.2213,0.2236,0.2245,0.229,0.2307,0.2329,0.2413,0.2448,0.2544,0.2622,0.2652,0.2772,0.2837,0.2896,0.2952,0.293,0.2937,0.2921,0.2668,0.2634,0.281,0.2805,0.2834,0.2832,0.283,0.2828,0.2827,0,0.219,0.2189,0.2226,0.2235,0.2254,0.2299,0.2331,0.2427,0.2474,0.2621,0.2649,0.2754,0.28,0.2862,0.284,0.283,0.2904,0.2604,0.2534,0.2808,0.2802,0.2799,0.2796,0.2281,0.2276,0.2271,0.2267,0,0.2148,0.2162,0.2171,0.2187,0.221,0.2237,0.2294,0.2324,0.2441,0.2501,0.2581,0.2628,0.2705,0.2602,0.2613,0.2573,0.2585,0.2508,0.2876,0.2357,0.2291,0.2283,0.2298,0.2226,0.223,0.2233,0.2235,0.2237,0.2117,0.2109,0.2121,0.2125,0.2148,0.2154,0.2145,0.2206,0.2248,0.2308,0.243,0.2423,0.245,0.2344,0.2263,0.2193,0.2369,0.2242,0.2255,0.2273,0.2214,0.2149,0.2044,0.2047,0.205,0.2052,0.2054,0,0.2061,0.2056,0.2058,0.2047,0.2024,0.2074,0.2095,0.2062,0.2051,0.2133,0.2172,0.2,0.1928,0.1952,0.1783,0.1768,0.1736,0.1682,0.1623,0.1666,0.1704,0.1614,0.1286,0.1284,0.1281,0.1279,0,0,0.2035,0.2001,0.1988,0.1919,0.1912,0.1855,0.1841,0.1806,0.1824,0.1779,0.1754,0.1889,0.1926,0.1609,0.1545,0.1391,0.1521,0.1328,0.1947,0.1924,0.1959,0.203,0.1942,0,0,0,0,0]},{"header":{"parameterUnit":"m.s-1","parameterCategory":2,"la1":30.2991,"la2":30.254,"lo1":-89.0895,"lo2":-89.0444,"dy":0.0017,"dx":0.0017,"nx":28,"ny":28,"refTime":"2024-05-10T09:00:00:Z","depth":"2","parameterNumber":3,"parameterNumberName":"V-component_of_CURRENTS"},"data":[0,0,0,0,0,0,0,0,0,0,0,0,0,0,0,0,0,0,0,0,0,0,0,0,0,0,0,0,0,0,0,0,0,0,0,0,0,0,0,0,0,0,0,0,0,0,0,0,0,0,0,0,0,0,0,0,0,0,0.023,0.023,0,0.0213,0.0212,0.0212,0.0197,0.0197,0.0197,0.0197,0.0164,0.0163,0.0162,0,0,0,0,0,0,0,0,0,0,0,0,0,0.0219,0.0219,0.023,0.023,0.0229,0.0213,0.0212,0.0212,0.0197,0.0197,0.0197,0.0197,0.0164,0.0163,0.0162,0,0,0,0,0,0,0,0,0,0,0,0,0,0.0214,0.0219,0.023,0.022,0.0219,0.0213,0.0212,0.0212,0.0197,0.0197,0.0197,0.0197,0.0164,0.0163,0.0162,0.0158,0,0,0.0158,0.0158,0,0,0,0,0,0,0,0,0.0215,0.0215,0.0222,0.0221,0.022,0.0207,0.0196,0.0193,0.0197,0.0205,0.0197,0.0197,0.0177,0.0175,0.0172,0.0157,0.0155,0.0158,0.0157,0.0157,0.0157,0,0,0,0,0,0,0,0.0215,0.0215,0.0222,0.0222,0.0221,0.0206,0.0206,0.0196,0.0192,0.0204,0.0203,0.0202,0.0176,0.0173,0.0171,0.0155,0.0158,0.0157,0.0156,0.0156,0.0142,0.0143,0,0,0,0,0,0,0.022,0.0216,0.0223,0.0222,0.0217,0.0207,0.0206,0.0211,0.0192,0.0189,0.0203,0.0202,0.0175,0.0172,0.0169,0.0184,0.0157,0.0156,0.0155,0.0142,0.0142,0.0143,0,0,0,0,0,0,0.022,0.0221,0.0224,0.0218,0.0218,0.0208,0.0213,0.0211,0.021,0.0191,0.0188,0.0205,0.0175,0.0171,0.0169,0.0182,0.0155,0.0154,0.0142,0.0142,0.0143,0.02,0,0,0,0,0,0,0.022,0.0221,0.0227,0.0219,0.0218,0.0227,0.0213,0.0211,0.021,0.0209,0.0192,0.0188,0.0174,0.0171,0.0168,0.018,0.0153,0.0141,0.0142,0.0143,0.0198,0.0203,0.0207,0,0,0,0,0,0.022,0.023,0.0227,0.0228,0.0226,0.0228,0.0226,0.0217,0.021,0.0215,0.0205,0.0189,0.0173,0.0171,0.0167,0.0179,0.0141,0.0142,0.0142,0.0196,0.0202,0.0207,0,0,0,0,0,0,0.0227,0.023,0.0226,0.0237,0.0235,0.0225,0.0229,0.0221,0.0217,0.0216,0.0196,0.0192,0.0194,0.0177,0.0175,0.0175,0.0153,0.0153,0.0195,0.02,0.0204,0.0222,0.0152,0,0,0,0,0,0.0232,0.0242,0.0239,0.0247,0.0249,0.024,0.0239,0.0234,0.0228,0.0226,0.0214,0.0201,0.0194,0.019,0.0179,0.0181,0.0163,0.0184,0.0189,0.0192,0.0204,0.0187,0.0191,0.0145,0.0145,0.0145,0,0,0.0237,0.024,0.0245,0.025,0.0248,0.026,0.0239,0.0244,0.0255,0.0223,0.0235,0.0217,0.0197,0.0201,0.02,0.0189,0.0194,0.0193,0.0197,0.0206,0.0188,0.0193,0.0197,0.0146,0.0146,0.0146,0,0,0.0255,0.0256,0.0272,0.0275,0.0278,0.0275,0.0279,0.0274,0.0275,0.0282,0.0262,0.0254,0.0242,0.0233,0.0226,0.0247,0.0218,0.024,0.0278,0.0262,0.0266,0.0269,0.0248,0.0248,0.0242,0.0242,0.0242,0,0.026,0.0283,0.0276,0.0293,0.0303,0.0286,0.0307,0.0306,0.0302,0.0312,0.0294,0.0282,0.026,0.0269,0.0275,0.0259,0.0243,0.0262,0.0269,0.0272,0.0274,0.0251,0.0251,0.0245,0.0245,0.0244,0.0244,0,0.0293,0.0311,0.0321,0.0341,0.0348,0.0364,0.0364,0.0373,0.0369,0.0368,0.0376,0.0344,0.0338,0.0326,0.0307,0.0315,0.0296,0.0277,0.0259,0.0282,0.0256,0.0255,0.0249,0.0248,0.0247,0.0247,0,0,0.0308,0.034,0.0344,0.0368,0.0378,0.0392,0.0414,0.0436,0.0463,0.0444,0.0471,0.0444,0.0424,0.0414,0.0383,0.0367,0.036,0.0334,0.0331,0.0319,0.0323,0.0309,0.0307,0.0344,0.0344,0.0344,0.0297,0,0.0339,0.0387,0.0391,0.0438,0.0466,0.0465,0.0494,0.0508,0.0513,0.0533,0.0501,0.0506,0.0458,0.0454,0.0431,0.0383,0.0362,0.0375,0.0297,0.0295,0.0285,0.0307,0.0322,0.0282,0.0296,0.0296,0.0296,0,0.0374,0.0405,0.0456,0.0506,0.0518,0.054,0.059,0.0615,0.0632,0.0636,0.0628,0.0596,0.0572,0.0523,0.0454,0.0465,0.0402,0.0356,0.0353,0.0322,0.028,0.0261,0.028,0.0294,0.0294,0.0295,0.0295,0,0.0402,0.0453,0.0499,0.0514,0.0561,0.0589,0.0617,0.0648,0.0689,0.0697,0.0721,0.0676,0.0665,0.0582,0.048,0.0468,0.04,0.0368,0.0294,0.0292,0.0282,0.0278,0.0317,0.0317,0.0317,0.0317,0.0318,0,0.044,0.0478,0.0518,0.0544,0.0614,0.063,0.0704,0.0726,0.0767,0.0829,0.0774,0.0801,0.0681,0.0622,0.0513,0.0408,0.0421,0.031,0.0285,0.0301,0.03,0.0291,0.0288,0.0316,0.0316,0.0316,0.0317,0,0.0466,0.0489,0.0549,0.0605,0.063,0.0681,0.0765,0.0821,0.0849,0.0925,0.093,0.09,0.083,0.07,0.057,0.0464,0.0351,0.0306,0.033,0.0309,0.0243,0.0244,0.0224,0.0223,0.0222,0.0222,0.0221,0,0.0484,0.0516,0.0593,0.0637,0.0664,0.0742,0.0805,0.0858,0.0922,0.0993,0.1034,0.0988,0.0974,0.0775,0.0585,0.0399,0.0359,0.0272,0.025,0.0259,0.0236,0.0238,0.024,0.0252,0.0252,0.0252,0.0252,0,0.0519,0.0543,0.0593,0.0683,0.0751,0.0842,0.0931,0.0996,0.1074,0.1139,0.1207,0.1198,0.1027,0.0849,0.0588,0.0452,0.0302,0.0263,0.0275,0.0276,0.0283,0.0261,0.0262,0.0251,0.0251,0.0251,0.0251,0.0251,0.0543,0.0584,0.0648,0.0737,0.082,0.0931,0.1014,0.1113,0.1229,0.1334,0.1325,0.132,0.1108,0.0788,0.055,0.03,0.0323,0.0214,0.0216,0.0217,0.0232,0.0238,0.0199,0.0199,0.0199,0.0199,0.0199,0,0.0572,0.0622,0.0699,0.0805,0.0897,0.0944,0.1092,0.1178,0.1319,0.1409,0.1467,0.1263,0.1062,0.0807,0.0456,0.0241,0.0215,0.0146,0.0167,0.0171,0.0174,0.0186,0.0141,0.014,0.0139,0.0138,0,0,0.0589,0.0658,0.0698,0.0845,0.0927,0.1063,0.1153,0.1285,0.1381,0.1469,0.1473,0.1448,0.1151,0.0871,0.0578,0.0367,0.0312,0.031,0.0385,0.0451,0.0456,0.0245,0.0273,0,0,0,0,0]}],[{"header":{"parameterUnit":"m.s-1","parameterCategory":2,"la1":30.2991,"la2":30.254,"lo1":-89.0895,"lo2":-89.0444,"dy":0.0017,"dx":0.0017,"nx":28,"ny":28,"refTime":"2024-05-10T09:00:00:Z","depth":"4","parameterNumber":2,"parameterNumberName":"U-component_of_CURRENTS"},"data":[0,0,0,0,0,0,0,0,0,0,0,0,0,0,0,0,0,0,0,0,0,0,0,0,0,0,0,0,0,0,0,0,0,0,0,0,0,0,0,0,0,0,0,0,0,0,0,0,0,0,0,0,0,0,0,0,0,0,0.1547,0.1547,0,0.1544,0.1544,0.1543,0.1563,0.1564,0.1565,0.1566,0.1582,0.1582,0.1582,0,0,0,0,0,0,0,0,0,0,0,0,0,0.154,0.154,0.1547,0.1547,0.1547,0.1544,0.1544,0.1543,0.1563,0.1564,0.1565,0.1566,0.1583,0.1582,0.1582,0,0,0,0,0,0,0,0,0,0,0,0,0,0.1538,0.154,0.1546,0.1558,0.156,0.1544,0.1544,0.1543,0.1563,0.1564,0.1565,0.1567,0.1583,0.1582,0.1582,0.1555,0,0,0.158,0.158,0,0,0,0,0,0,0,0,0.1538,0.1538,0.1557,0.1558,0.1559,0.1558,0.1548,0.1549,0.1563,0.1559,0.1566,0.1567,0.1577,0.1577,0.157,0.1556,0.1556,0.158,0.158,0.158,0.158,0,0,0,0,0,0,0,0.1539,0.1538,0.1543,0.1557,0.1558,0.1555,0.1555,0.1548,0.1559,0.1559,0.1561,0.1565,0.1577,0.157,0.157,0.1556,0.158,0.158,0.158,0.1579,0.1625,0.1627,0,0,0,0,0,0,0.1544,0.1538,0.1543,0.1543,0.1555,0.1554,0.1555,0.1555,0.1559,0.1562,0.1564,0.1566,0.157,0.1571,0.1571,0.1633,0.158,0.1579,0.1579,0.1624,0.1626,0.1627,0,0,0,0,0,0,0.1544,0.1545,0.1543,0.1543,0.1543,0.1553,0.1552,0.1554,0.1582,0.1563,0.1566,0.1595,0.1571,0.1572,0.1596,0.1631,0.1579,0.1579,0.1622,0.1624,0.1627,0.1698,0,0,0,0,0,0,0.1544,0.1544,0.1562,0.1543,0.1543,0.1557,0.1552,0.1553,0.1581,0.1585,0.1589,0.159,0.1572,0.1597,0.1596,0.1629,0.1578,0.162,0.1623,0.1626,0.1694,0.1702,0.171,0,0,0,0,0,0.1543,0.1556,0.1563,0.1564,0.1562,0.1558,0.1558,0.1567,0.1582,0.1597,0.1605,0.1592,0.1614,0.1598,0.1596,0.163,0.1619,0.1622,0.1626,0.169,0.1701,0.171,0,0,0,0,0,0,0.1562,0.1558,0.1566,0.1578,0.1582,0.1564,0.1583,0.1588,0.1604,0.162,0.1604,0.1605,0.1642,0.1625,0.1607,0.1653,0.1617,0.162,0.1667,0.1677,0.1684,0.1684,0.1578,0,0,0,0,0,0.1574,0.1586,0.1579,0.1594,0.16,0.1599,0.1607,0.1613,0.1617,0.1627,0.163,0.1638,0.1646,0.1655,0.1656,0.1675,0.1671,0.1698,0.1706,0.1713,0.1713,0.1751,0.1762,0.1638,0.1638,0.1638,0,0,0.1585,0.1587,0.1595,0.1601,0.1606,0.1611,0.1608,0.1629,0.1641,0.1625,0.1658,0.1668,0.1659,0.1685,0.17,0.168,0.1747,0.1717,0.1723,0.1719,0.1755,0.1767,0.1778,0.1641,0.164,0.164,0,0,0.1599,0.1619,0.1628,0.1635,0.1652,0.1647,0.1663,0.1667,0.1685,0.1709,0.1708,0.1739,0.1746,0.1748,0.1748,0.18,0.179,0.1811,0.1849,0.1887,0.1897,0.1906,0.1918,0.1927,0.1813,0.1813,0.1813,0,0.1618,0.1622,0.1633,0.1641,0.1653,0.1668,0.1678,0.169,0.1706,0.1727,0.1734,0.1774,0.1773,0.1801,0.1824,0.1818,0.1833,0.1813,0.1898,0.1907,0.1915,0.1924,0.1934,0.1817,0.1817,0.1816,0.1816,0,0.1621,0.164,0.165,0.1664,0.1679,0.1695,0.1709,0.174,0.1769,0.1781,0.1837,0.1842,0.1867,0.1878,0.1866,0.1926,0.1916,0.1906,0.1873,0.1931,0.1937,0.1946,0.1823,0.1821,0.182,0.1819,0,0,0.1616,0.1646,0.1653,0.1665,0.1696,0.17,0.1741,0.1771,0.1803,0.1844,0.1887,0.192,0.1945,0.1947,0.195,0.1981,0.2052,0.1976,0.1977,0.1986,0.213,0.1978,0.1973,0.207,0.2072,0.2073,0.2111,0,0.1617,0.1634,0.1653,0.1678,0.1686,0.1724,0.1752,0.1792,0.1834,0.1881,0.192,0.1962,0.1964,0.1992,0.2029,0.2048,0.2079,0.2041,0.2072,0.2072,0.193,0.1979,0.208,0.2117,0.2119,0.2121,0.2122,0,0.1603,0.1618,0.1644,0.168,0.169,0.1716,0.1776,0.1806,0.1879,0.1917,0.1982,0.2012,0.2074,0.2064,0.2139,0.2123,0.2137,0.2144,0.2145,0.1981,0.1936,0.2047,0.2137,0.2136,0.2135,0.2134,0.2133,0,0.1569,0.1607,0.163,0.1643,0.1689,0.1725,0.1761,0.1829,0.1868,0.1955,0.2001,0.207,0.2125,0.2161,0.2194,0.2182,0.2262,0.2239,0.2109,0.2098,0.2193,0.2182,0.2287,0.2287,0.2287,0.2287,0.2287,0,0.1538,0.156,0.1624,0.1633,0.1672,0.1717,0.1773,0.1821,0.1901,0.1945,0.203,0.2068,0.2161,0.2214,0.222,0.2191,0.229,0.2117,0.2101,0.2221,0.2214,0.2198,0.2188,0.2289,0.2288,0.2288,0.2288,0,0.1488,0.1531,0.1561,0.1628,0.1656,0.1688,0.1777,0.1805,0.1902,0.1965,0.2001,0.2106,0.216,0.2219,0.2277,0.2213,0.2199,0.2165,0.2289,0.2279,0.2001,0.1994,0.2006,0.2001,0.1997,0.1993,0.199,0,0.1457,0.1469,0.1554,0.1576,0.1614,0.1674,0.1705,0.1798,0.1828,0.196,0.1973,0.2076,0.2126,0.2087,0.2157,0.2149,0.2125,0.21,0.2041,0.199,0.1974,0.1974,0.1972,0.1984,0.1983,0.1981,0.198,0,0.1398,0.1449,0.1476,0.1526,0.1568,0.1598,0.1656,0.1668,0.1767,0.1878,0.189,0.1907,0.1963,0.1986,0.2006,0.1995,0.2102,0.2056,0.2063,0.2007,0.1963,0.1951,0.1955,0.1966,0.1968,0.1969,0.197,0,0.1366,0.1374,0.1424,0.1449,0.15,0.1495,0.1538,0.1558,0.16,0.1737,0.1738,0.1837,0.1942,0.1907,0.192,0.1902,0.1859,0.1784,0.1806,0.1823,0.1743,0.1658,0.1555,0,0,0,0,0,0.1319,0.1312,0.1335,0.1347,0.139,0.1416,0.1483,0.1526,0.1629,0.1589,0.1655,0.1686,0.1694,0.1748,0.1689,0.1835,0.1873,0.1757,0.1799,0.1884,0.1901,0.1823,0,0,0,0,0,0,0.1286,0.1311,0.1302,0.1252,0.1242,0.1267,0.1307,0.1376,0.1356,0.1475,0.1491,0.1576,0.1617,0.1713,0.1657,0.1671,0.1658,0.182,0.1815,0.1875,0.189,0.1904,0.1829,0,0,0,0,0]},{"header":{"parameterUnit":"m.s-1","parameterCategory":2,"la1":30.2991,"la2":30.254,"lo1":-89.0895,"lo2":-89.0444,"dy":0.0017,"dx":0.0017,"nx":28,"ny":28,"refTime":"2024-05-10T09:00:00:Z","depth":"4","parameterNumber":3,"parameterNumberName":"V-component_of_CURRENTS"},"data":[0,0,0,0,0,0,0,0,0,0,0,0,0,0,0,0,0,0,0,0,0,0,0,0,0,0,0,0,0,0,0,0,0,0,0,0,0,0,0,0,0,0,0,0,0,0,0,0,0,0,0,0,0,0,0,0,0,0,0.0169,0.0169,0,0.0163,0.0163,0.0163,0.0159,0.0159,0.0159,0.0159,0.0146,0.0145,0.0145,0,0,0,0,0,0,0,0,0,0,0,0,0,0.0158,0.0158,0.0169,0.0169,0.0169,0.0163,0.0163,0.0163,0.0159,0.0159,0.0159,0.0159,0.0146,0.0145,0.0145,0,0,0,0,0,0,0,0,0,0,0,0,0,0.0158,0.0158,0.0169,0.0166,0.0166,0.0163,0.0163,0.0163,0.0159,0.0159,0.0159,0.0159,0.0146,0.0145,0.0145,0.0143,0,0,0.0143,0.0143,0,0,0,0,0,0,0,0,0.0158,0.0159,0.0167,0.0167,0.0166,0.0162,0.0154,0.0156,0.0159,0.0161,0.0159,0.0159,0.015,0.015,0.0148,0.0142,0.0141,0.0143,0.0143,0.0143,0.0143,0,0,0,0,0,0,0,0.0158,0.0159,0.0167,0.0167,0.0166,0.0159,0.0159,0.0154,0.0156,0.0161,0.0161,0.016,0.015,0.0149,0.0148,0.0141,0.0143,0.0143,0.0143,0.0142,0.0144,0.0144,0,0,0,0,0,0,0.016,0.0159,0.0167,0.0167,0.0162,0.0159,0.0159,0.0163,0.0156,0.0155,0.016,0.016,0.015,0.0149,0.0148,0.0164,0.0143,0.0142,0.0142,0.0143,0.0144,0.0144,0,0,0,0,0,0,0.016,0.0161,0.0167,0.0162,0.0163,0.0159,0.0164,0.0163,0.0166,0.0156,0.0154,0.0165,0.015,0.0148,0.0153,0.0163,0.0142,0.0142,0.0143,0.0143,0.0144,0.0185,0,0,0,0,0,0,0.016,0.0161,0.0167,0.0163,0.0163,0.0172,0.0164,0.0163,0.0166,0.0166,0.0159,0.0158,0.015,0.0154,0.0153,0.0162,0.0141,0.0142,0.0143,0.0144,0.0183,0.0187,0.019,0,0,0,0,0,0.016,0.0168,0.0168,0.0169,0.017,0.0173,0.0172,0.0169,0.0166,0.0172,0.0169,0.0158,0.0156,0.0154,0.0152,0.0162,0.0142,0.0143,0.0144,0.0182,0.0186,0.019,0,0,0,0,0,0,0.0165,0.0168,0.0168,0.0177,0.0177,0.0172,0.0177,0.0173,0.0175,0.0177,0.0165,0.0164,0.0171,0.016,0.0157,0.0163,0.0146,0.0147,0.0176,0.018,0.0183,0.0194,0.0141,0,0,0,0,0,0.0169,0.0178,0.0177,0.0185,0.0187,0.0183,0.0184,0.0183,0.0182,0.0183,0.0178,0.0173,0.0171,0.0171,0.0167,0.0172,0.0154,0.0175,0.0178,0.0181,0.0189,0.0168,0.0171,0.0146,0.0146,0.0146,0,0,0.0172,0.0176,0.0181,0.0187,0.0188,0.0198,0.0184,0.019,0.0202,0.0181,0.0196,0.0186,0.0175,0.0182,0.0184,0.0175,0.0178,0.0182,0.0185,0.0191,0.0169,0.0172,0.0174,0.0147,0.0147,0.0147,0,0,0.0186,0.0189,0.0202,0.0206,0.0212,0.0211,0.0215,0.0215,0.0219,0.0229,0.0218,0.0215,0.0213,0.0208,0.0204,0.0222,0.0197,0.0219,0.0246,0.0226,0.0228,0.0229,0.0208,0.0207,0.022,0.022,0.022,0,0.019,0.0208,0.0205,0.022,0.0229,0.022,0.0237,0.024,0.0242,0.0251,0.0241,0.0239,0.0226,0.0234,0.024,0.023,0.0214,0.0233,0.0231,0.0232,0.0233,0.021,0.0209,0.0222,0.0222,0.0222,0.0221,0,0.0213,0.023,0.0238,0.0256,0.0264,0.0278,0.0281,0.0292,0.0294,0.0294,0.0304,0.0286,0.0284,0.0277,0.0266,0.0268,0.0253,0.0238,0.0222,0.0238,0.0213,0.0211,0.0225,0.0224,0.0224,0.0223,0,0,0.0221,0.025,0.0254,0.0274,0.0287,0.0299,0.032,0.0339,0.0361,0.0352,0.0373,0.0359,0.0345,0.0339,0.0319,0.0301,0.0288,0.0276,0.0274,0.0258,0.0244,0.0226,0.0221,0.0273,0.0273,0.0273,0.0224,0,0.0243,0.0281,0.0288,0.0327,0.0349,0.0355,0.038,0.0394,0.0401,0.0418,0.0395,0.0403,0.037,0.037,0.0347,0.0308,0.0285,0.0302,0.0229,0.0227,0.0211,0.0219,0.0272,0.0222,0.0221,0.0221,0.0221,0,0.0266,0.0291,0.0333,0.0378,0.0389,0.041,0.0453,0.0476,0.0491,0.0495,0.049,0.0468,0.0448,0.0413,0.0349,0.0363,0.0309,0.027,0.0267,0.0236,0.0205,0.0202,0.0216,0.0217,0.0217,0.0217,0.0218,0,0.0281,0.0325,0.0364,0.0377,0.0421,0.0447,0.0474,0.0501,0.0535,0.0544,0.0561,0.0524,0.0516,0.0445,0.0362,0.0356,0.0285,0.0264,0.0194,0.0192,0.0204,0.0203,0.0212,0.0212,0.0212,0.0213,0.0213,0,0.0304,0.0336,0.0377,0.0399,0.046,0.0478,0.054,0.0561,0.0596,0.064,0.0603,0.0616,0.0525,0.0471,0.0382,0.0285,0.0296,0.0203,0.018,0.0222,0.0223,0.0202,0.0202,0.0211,0.0211,0.0211,0.0212,0,0.0317,0.0341,0.0392,0.0445,0.0469,0.0514,0.059,0.0634,0.066,0.0713,0.0718,0.069,0.0622,0.0519,0.0405,0.0321,0.0221,0.018,0.0237,0.0218,0.0135,0.0137,0.0101,0.01,0.0099,0.0099,0.0098,0,0.0326,0.0353,0.0425,0.0463,0.0491,0.0561,0.0615,0.0664,0.0709,0.0757,0.0781,0.0738,0.07,0.0533,0.0414,0.0241,0.0209,0.0148,0.0136,0.0143,0.0125,0.0128,0.0131,0.0097,0.0096,0.0096,0.0096,0,0.0345,0.0371,0.0415,0.0492,0.0552,0.0629,0.0702,0.074,0.0801,0.0823,0.0832,0.0752,0.0677,0.0538,0.0405,0.0278,0.0183,0.0139,0.0139,0.0128,0.0137,0.012,0.0125,0.0093,0.0093,0.0094,0.0094,0,0.036,0.0392,0.0448,0.0519,0.0598,0.0674,0.0714,0.0769,0.0818,0.0862,0.0862,0.0784,0.0741,0.0557,0.0435,0.0309,0.0269,0.0209,0.0205,0.0207,0.0246,0.0274,0.0257,0,0,0,0,0,0.0372,0.0407,0.047,0.0549,0.0627,0.0674,0.0765,0.0799,0.0854,0.0864,0.0866,0.0794,0.0629,0.0563,0.0434,0.0403,0.0237,0.0244,0.0163,0.0077,0.008,0.0105,0,0,0,0,0,0,0.0378,0.0434,0.0466,0.0562,0.0616,0.0707,0.0766,0.0804,0.081,0.0842,0.0761,0.0735,0.0577,0.0699,0.0422,0.0387,0.0311,0.0175,0.0172,0.0075,0.0078,0.0081,0.0107,0,0,0,0,0]}]]